Sisseton, SD

2:35 AM CDT on May 01, 2017 (GMT -0500)
Sisseton

Weather History for K8D3 - July, 2012

Change the Weather History Date:

Tuesday, July 17, 2012

  Actual Average Record
Temperature  
Mean Temperature 72 °F 72 °F  
Max Temperature 79 °F 83 °F 101 °F (1932)
Min Temperature 65 °F 60 °F 48 °F (1937)
Degree Days  
Heating Degree Days 0 0  
Month to date heating degree days 0 3  
Since 1 June heating degree days 27 65  
Since 1 July heating degree days 0 3  
Cooling Degree Days 7 7  
Month to date cooling degree days 195 108  
Year to date cooling degree days 414 225  
Since 1 June cooling degree days 356 202  
Growing Degree Days 22 (Base 50)    
Moisture  
Dew Point 66 °F    
Average Humidity 80    
Maximum Humidity 93    
Minimum Humidity 67    
Precipitation  
Precipitation 0.04 in 0.14 in 1.64 in (1944)
Month to date precipitation 0.15 2.03  
Year to date precipitation 11.05 12.75  
Sea Level Pressure  
Sea Level Pressure 29.79 in    
Wind  
Wind Speed 8 mph (NNE)    
Max Wind Speed 17 mph    
Max Gust Speed 22 mph    
T = Trace of Precipitation, MM = Missing Value Source: NWS Daily Summary

Daily Weather History Graph

Daily Weather History Graph

Search for Another Location

Airport or City:

Trip Planner

Search our weather history database for the weather conditions in past years. The results will help you decide how hot, cold, wet, or windy it might be!

Date:

Astronomy

Jul. 17, 2012 Rise Set
Actual Time 5:55 AM CDT 9:12 PM CDT
Civil Twilight 5:19 AM CDT 9:48 PM CDT
Nautical Twilight 4:31 AM CDT 10:35 PM CDT
Astronomical Twilight 3:32 AM CDT 11:33 PM CDT
Moon 4:33 AM CDT (7/17) 8:01 PM CDT (7/17)
Length of Visible Light 16h 29m
Length of Day
15h 16m
Waning Crescent, 2% of the Moon is Illuminated
Jul 17
Waning Crescent
Jul 18
New
Jul 26
First Quarter
Aug 1
Full
Aug 9
Last Quarter

Hourly Weather History & Observations

Time (CDT) Temp. Dew Point Humidity Pressure Visibility Wind Dir Wind Speed Gust Speed Precip Events Conditions
12:56 AM 72.0 °F 66.9 °F 84% 29.71 in - North 5.8 mph - N/A   Unknown
1:56 AM 70.0 °F 66.0 °F 87% 29.73 in - North 6.9 mph - N/A   Unknown
2:56 AM 68.0 °F 64.0 °F 87% 29.73 in - North 4.6 mph - N/A   Unknown
3:56 AM 68.0 °F 63.0 °F 84% 29.78 in - North 18.4 mph 24.2 mph N/A   Unknown
4:56 AM 66.9 °F 63.0 °F 87% 29.75 in - NNE 4.6 mph - N/A   Unknown
5:56 AM 66.9 °F 63.0 °F 87% 29.75 in - NNE 4.6 mph - N/A   Unknown
6:56 AM 66.0 °F 64.0 °F 93% 29.74 in - SSE 3.5 mph - N/A   Unknown
7:56 AM 68.0 °F 64.0 °F 87% 29.75 in - Calm Calm - N/A   Unknown
8:56 AM 68.0 °F 64.9 °F 90% 29.78 in - NW 9.2 mph - 0.03 in   Unknown
9:56 AM 68.0 °F 64.9 °F 90% 29.82 in - North 6.9 mph - N/A   Unknown
10:56 AM 70.0 °F 66.0 °F 87% 29.78 in - NNE 16.1 mph - 0.01 in   Unknown
11:56 AM 72.0 °F 66.9 °F 84% 29.81 in - NE 10.4 mph - N/A   Unknown
12:56 PM 73.9 °F 68.0 °F 82% 29.83 in - NNE 9.2 mph - N/A   Unknown
1:56 PM 73.9 °F 68.0 °F 82% 29.82 in - NE 5.8 mph 18.4 mph N/A   Unknown
2:56 PM 77.0 °F 68.0 °F 74% 29.83 in - NNE 10.4 mph - N/A   Unknown
3:56 PM 78.1 °F 66.9 °F 68% 29.83 in - NNE 4.6 mph - N/A   Unknown
4:56 PM 77.0 °F 68.0 °F 74% 29.81 in - NE 10.4 mph - N/A   Unknown
5:56 PM 78.1 °F 68.0 °F 71% 29.80 in - NE 13.8 mph - N/A   Unknown
6:56 PM 79.0 °F 68.0 °F 69% 29.81 in - NE 10.4 mph - N/A   Unknown
7:56 PM 75.9 °F 66.9 °F 74% 29.82 in - NE 11.5 mph - N/A   Unknown
8:56 PM 73.0 °F 66.9 °F 81% 29.83 in - ENE 5.8 mph - N/A   Unknown
9:56 PM 70.0 °F 66.0 °F 87% 29.85 in - ENE 4.6 mph - N/A   Unknown
10:56 PM 68.0 °F 64.9 °F 90% 29.86 in - ENE 4.6 mph - N/A   Unknown
11:56 PM 66.9 °F 64.0 °F 90% 29.85 in - Calm Calm - N/A   Unknown